Location: Red Rock Farm
(35.2100°N, 97.2200°W)
Time: 21:21:29
(UTC-05:00)

ISS - All Passes

Search period start: 02 September 2014 00:00
Search period end: 12 September 2014 00:00
Orbit: 413 x 419 km, 51.6° (Epoch: 02 September)

Date Brightness Start Highest point End Pass type
(mag) Time Alt. Az. Time Alt. Az. Time Alt. Az.
02 Sep - 08:45:24 10° SSE 08:46:58 13° SE 08:48:32 10° E daylight
02 Sep - 10:20:08 10° WSW 10:23:21 49° NW 10:26:36 10° NE daylight
02 Sep - 16:51:28 10° NW 16:54:40 43° NE 16:57:51 10° ESE daylight
02 Sep - 18:29:11 10° W 18:31:07 15° SW 18:33:02 10° SSW daylight
03 Sep - 09:31:29 10° SW 09:34:48 86° SE 09:38:07 10° NE daylight
03 Sep - 11:10:15 10° WNW 11:11:55 13° NNW 11:13:36 10° N daylight
03 Sep - 16:03:10 10° NNW 16:06:01 25° NE 16:08:51 10° E daylight
03 Sep - 17:39:50 10° WNW 17:42:42 27° SW 17:45:35 10° S daylight
04 Sep - 08:43:08 10° SSW 08:46:17 42° SE 08:49:26 10° ENE daylight
04 Sep - 10:20:39 10° W 10:23:08 19° NNW 10:25:37 10° NNE daylight
04 Sep - 15:15:02 10° NNW 15:17:16 17° NNE 15:19:31 10° ENE daylight
04 Sep - 16:50:58 10° WNW 16:54:14 54° SW 16:57:28 10° SSE daylight
05 Sep - 07:55:11 10° S 07:57:48 22° SE 08:00:26 10° ENE daylight
05 Sep - 09:31:25 10° W 09:34:24 30° NW 09:37:24 10° NNE daylight
05 Sep - 14:27:12 10° N 14:28:26 12° NNE 14:29:40 10° NE daylight
05 Sep - 16:02:20 10° NW 16:05:39 75° NE 16:08:58 10° SE daylight
06 Sep - 07:08:10 10° SSE 07:09:22 12° SE 07:10:34 10° ESE daylight
06 Sep - 08:42:27 10° WSW 08:45:43 54° NW 08:48:59 10° NE daylight
06 Sep - 15:13:51 10° NNW 15:17:00 39° NE 15:20:08 10° ESE daylight
06 Sep - 16:51:20 10° W 16:53:29 16° SW 16:55:37 10° SSW daylight
07 Sep - 07:53:46 10° SW 07:57:05 77° SE 08:00:24 10° NE daylight
07 Sep - 09:32:19 10° WNW 09:34:09 14° NNW 09:36:00 10° N daylight
07 Sep - 14:25:30 10° NNW 14:28:15 24° NNE 14:31:00 10° E daylight
07 Sep - 16:02:01 10° WNW 16:04:59 30° SW 16:07:56 10° SSE daylight
08 Sep - 07:05:24 10° SSW 07:08:29 37° SE 07:11:36 10° ENE daylight
08 Sep - 08:42:43 10° W 08:45:18 21° NNW 08:47:53 10° NNE daylight
08 Sep - 13:37:18 10° N 13:39:25 16° NNE 13:41:31 10° ENE daylight
08 Sep - 15:13:07 10° NW 15:16:24 61° SW 15:19:41 10° SE daylight
09 Sep - 06:17:28 10° S 06:19:57 20° SE 06:22:25 10° E visible
09 Sep - 07:53:27 10° WSW 07:56:29 33° NW 07:59:33 10° NNE daylight
09 Sep - 12:49:32 10° N 12:50:29 11° NNE 12:51:25 10° NE daylight
09 Sep - 14:24:26 10° NW 14:27:45 66° NE 14:31:02 10° SE daylight
10 Sep - 05:30:57 10° SE 05:31:26 10° SE 05:31:55 10° ESE visible
10 Sep - 07:04:27 10° WSW 07:07:44 61° NW 07:11:02 10° NE daylight
10 Sep - 08:44:22 10° NW 08:45:02 10° NNW 08:45:42 10° NNW daylight
10 Sep - 13:35:54 10° NNW 13:39:00 35° NE 13:42:05 10° ESE daylight
10 Sep - 15:13:09 10° W 15:15:30 18° SW 15:17:51 10° S daylight
11 Sep - 06:15:44 10° SW 06:19:02 67° SE 06:22:20 10° NE visible
11 Sep - 07:54:03 10° WNW 07:56:03 15° NNW 07:58:04 10° N daylight
11 Sep - 12:47:29 10° NNW 12:50:09 22° NNE 12:52:48 10° E daylight
11 Sep - 14:23:52 10° WNW 14:26:55 34° SW 14:29:57 10° SSE daylight
